Provo, UT

2:20 AM MST on November 13, 2019 (GMT -0700)
Provo Municipal

Weather History for KPVU - September, 2019

Change the Weather History Date:

Monday, September 23, 2019

  Actual Average Record
Temperature  
Mean Temperature 65 °F -  
Max Temperature 79 °F 72 °F 87 °F (2001)
Min Temperature 51 °F 44 °F 37 °F (1985)
Growing Degree Days 15 (Base 50)    
Moisture  
Dew Point 37 °F    
Average Humidity 44    
Maximum Humidity 74    
Minimum Humidity 14    
Precipitation  
Precipitation 0.00 in - - ()
Sea Level Pressure  
Sea Level Pressure 30.00 in    
Wind  
Wind Speed 4 mph (SW)    
Max Wind Speed 15 mph    
Max Gust Speed -    
Visibility 10 miles    
Events      
Averages and records for this station are not official NWS values.
T = Trace of Precipitation, MM = Missing Value Source: NWS Daily Summary

Daily Weather History Graph

Daily Weather History Graph

Search for Another Location

Airport or City:

Astronomy

Sep. 23, 2019 Rise Set
Actual Time 7:15 AM MDT 7:22 PM MDT
Civil Twilight 6:48 AM MDT 7:49 PM MDT
Nautical Twilight 6:16 AM MDT 8:21 PM MDT
Astronomical Twilight 5:44 AM MDT 8:53 PM MDT
Moon 1:01 AM MDT (9/23) 4:19 PM MDT (9/23)
Length of Visible Light 13h 01m
Length of Day
12h 07m
Waning Crescent, 32% of the Moon is Illuminated
Sep 23
Waning Crescent
Sep 28
New
Oct 5
First Quarter
Oct 13
Full
Oct 21
Last Quarter

Hourly Weather History & Observations

Time (MDT) Temp. Dew Point Humidity Pressure Visibility Wind Dir Wind Speed Gust Speed Precip Events Conditions
12:56 AM 52.0 °F 44.1 °F 74% 29.97 in 10.0 mi SSW 6.9 mph - N/A   Clear
1:56 AM 57.0 °F 42.1 °F 57% 29.95 in 10.0 mi Calm Calm - N/A   Clear
2:56 AM 52.0 °F 43.0 °F 71% 29.95 in 10.0 mi Calm Calm - N/A   Clear
3:56 AM 52.0 °F 43.0 °F 71% 29.93 in 10.0 mi WSW 5.8 mph - N/A   Clear
4:56 AM 57.0 °F 39.0 °F 51% 29.92 in 10.0 mi Calm Calm - N/A   Clear
5:56 AM 55.0 °F 42.1 °F 62% 29.93 in 10.0 mi WNW 4.6 mph - N/A   Clear
6:56 AM 53.1 °F 42.1 °F 66% 29.98 in 10.0 mi Variable 4.6 mph - N/A   Mostly Cloudy
7:56 AM 51.1 °F 39.9 °F 66% 30.01 in 10.0 mi Variable 4.6 mph - N/A   Mostly Cloudy
8:56 AM 61.0 °F 37.9 °F 42% 30.03 in 10.0 mi Calm Calm - N/A   Clear
9:56 AM 63.0 °F 37.9 °F 40% 30.04 in 10.0 mi SSE 5.8 mph - N/A   Mostly Cloudy
10:56 AM 69.1 °F 37.0 °F 31% 30.03 in 10.0 mi ESE 4.6 mph - N/A   Scattered Clouds
11:56 AM 69.1 °F 43.0 °F 39% 30.04 in 10.0 mi West 4.6 mph - N/A   Clear
12:56 PM 73.9 °F 26.1 °F 17% 30.02 in 5.0 mi Calm Calm - N/A   Haze
1:56 PM 75.0 °F 25.0 °F 16% 30.00 in 10.0 mi Variable 3.5 mph - N/A   Scattered Clouds
2:56 PM 78.1 °F 25.0 °F 14% 29.99 in 10.0 mi Variable 4.6 mph - N/A   Scattered Clouds
3:56 PM 79.0 °F 25.0 °F 14% 29.98 in 10.0 mi South 5.8 mph - N/A   Clear
4:56 PM 78.1 °F 26.1 °F 15% 29.96 in 10.0 mi SW 5.8 mph - N/A   Clear
5:56 PM 77.0 °F 27.0 °F 16% 29.98 in 10.0 mi Variable 4.6 mph - N/A   Scattered Clouds
6:56 PM 70.0 °F 43.0 °F 38% 30.01 in 10.0 mi NNW 15.0 mph - N/A   Clear
7:56 PM 64.9 °F 48.0 °F 54% 30.04 in 10.0 mi NW 11.5 mph - N/A   Clear
9:56 PM 63.0 °F 42.1 °F 46% 30.06 in 10.0 mi North 6.9 mph - N/A   Clear
10:56 PM 55.9 °F 43.0 °F 62% 30.07 in 10.0 mi SE 8.1 mph - N/A   Clear
11:56 PM 55.9 °F 37.9 °F 51% 30.09 in 10.0 mi ESE 3.5 mph - N/A   Clear